Regional Weather Roundup
Issued by NWS Mt. Holly, NJ

Home | Current Version | Previous Version | Text Only | Print | Product List | Glossary On
Versions: 1 2 3 4 5 6 7 8 9 10 11 12 13 14 15 16 17 18 19 20 21 22 23 24 25 26 27 28 29 30
000
ASUS41 KPHI 260712
RWRPHI

REGIONAL WEATHER ROUNDUP
NATIONAL WEATHER SERVICE MOUNT HOLLY NJ
300 AM EDT FRI AUG 26 2016

NOTE:  "FAIR" INDICATES FEW OR NO CLOUDS BELOW 12,000 FEET WITH NO
SIGNIFICANT WEATHER AND/OR OBSTRUCTIONS TO VISIBILITY.

 * = STATION DOES NOT REPORT PRECIPITATION (E.G. RAIN, SNOW, ETC.)
        OR FOG.

NJZ015>026-260800-
SOUTHERN NEW JERSEY

CITY           SKY/WX    TMP DP  RH WIND       PRES   REMARKS
POMONA         FAIR      74  69  85 S7        30.01S
WILDWOOD*        N/A     74  70  87 S9        30.03R
MILLVILLE      FAIR      73  71  93 CALM      30.02S
WRIGHTSTOWN    FAIR      71  68  93 SW5       29.98S
MOUNT HOLLY    FAIR      72  69  90 CALM      30.00S
TRENTON        FAIR      74  69  85 SW3       29.99S

$$
NJZ001>014-260800-
NORTHERN NEW JERSEY

CITY           SKY/WX    TMP DP  RH WIND       PRES   REMARKS
SUSSEX         FAIR      69  68  96 CALM      29.99R FOG
ANDOVER*         N/A     71  70  96 SW3       30.00S
MORRISTOWN     FOG       68  68 100 CALM      29.99R VSB 1/2
NEWARK         FAIR      77  70  79 SW12      29.98R
TETERBORO      MOCLDY    77  71  82 SW7       29.97R
CALDWELL       FAIR      75  71  87 VRB3      29.99R
SOMERVILLE     FAIR      70  68  93 CALM      29.98R
ALLAIRE*       FAIR      73  68  84 S6        30.01S
TOMS RIVER*    FAIR      73  68  84 SW7       30.01S

$$
PAZ043-044-047-054-055-060>062-066>071-260800-
EASTERN PENNSYLVANIA

CITY           SKY/WX    TMP DP  RH WIND       PRES   REMARKS
PHILADELPHIA   FAIR      76  69  79 SW8       30.01R
NORTH PHILA    FAIR      78  71  79 SW6       30.01R
BLUE BELL*     MOCLDY    73  70  88 SW5       30.01R
DOYLESTOWN     FAIR      75  72  90 SW3       30.00R
QUAKERTOWN*    FAIR      73  72  94 CALM      30.02R
POTTSTOWN      FAIR      74  71  91 S5        30.02R
LANCASTER      FAIR      72  72 100 SE5       29.99F FOG
COATESVILLE    FAIR      73  72  94 CALM      30.03S
READING        FAIR      75  71  87 S3        29.98F
ALLENTOWN      FAIR      72  68  87 CALM      29.98F
MOUNT POCONO   FAIR      71  69  93 W8        30.05R
WILKES BARRE   LGT RAIN  73  71  93 CALM      29.99S

$$
DEZALL-MDZ008-012-015-019-020-260800-
DELAWARE AND EASTERN MARYLAND

CITY           SKY/WX    TMP DP  RH WIND       PRES   REMARKS
WILMINGTON     FAIR      74  69  85 SW3       30.01S
DOVER          FAIR      74  74 100 S7        30.00S
GEORGETOWN     FAIR      73  70  90 SW6       30.04R
EASTON         FAIR      78  78  99 SW5       30.05S
PATUXENT       FAIR      78  70  76 SW12      30.02S
OCEAN CITY     FAIR      78  70  76 SW9       30.04S
WALLOPS ISLAND FAIR      76  68  76 SW10      30.05S
SALISBURY      FAIR      72  70  93 S5        30.04R

$$
PAZ001-021-NYZ056-072-MDZ011-DCZ001-260800-
OTHER NEARBY LOCATIONS

CITY           SKY/WX    TMP DP  RH WIND       PRES   REMARKS
HARRISBURG     MOCLDY    79  75  87 VRB5      29.97F
STATE COLLEGE  FAIR      73  71  91 W6        30.05R
WILLIAMSPORT   MOCLDY    75  72  90 CALM      29.96F
BINGHAMTON     CLOUDY    71  70  96 SW5       29.99R
NEW YORK CITY    N/A     77  72  83 MISG        N/A
BALTIMORE      FAIR      76  72  87 S3        30.00S
WASHINGTON DC  FAIR      79  74  84 S8        30.01F

$$




USA.gov is the U.S. government's official web portal to all federal, state and local government web resources and services.